Theta_e
313 314 314 315 316 317 316 315 314 314 315 317 319 322 320 316 314 317 316 314 315 316 320 319 315 317 316 318 319 317 326 326 327 328 326 321 322 318 317 320 318 318 319 318 321
315 314 314 312 313 315 314 312 310 313 315 316 319 321 317 313 316 316 313 316 319 318 318 316 319 317 318 318 319 324 325 326 322 322 324 321 321 320 320 320 320 318 315 315 316
315 314 312 313 313 311 313 312 310 315 317 317 317 318 314 314 313 313 310 313 315 318 316 312 317 316 317 317 318 319 324 320 318 317 319 320 318 314 319 321 319 318 317 317 317
312 310 310 312 313 313 313 313 315 317 316 315 315 312 315 308 313 307 308 308 311 315 312 312 316 316 317 318 315 321 316 317 316 311 316 319 314 316 315 317 311 311 312 316 318
311 311 310 311 314 314 314 315 316 315 313 313 313 312 305 308 308 308 307 308 311 314 311 314 316 315 317 316 316 319 315 312 309 310 310 309 311 312 311 310 309 308 310 315 318
309 310 310 311 313 314 313 311 314 313 315 312 309 306 305 310 308 308 308 308 309 310 310 311 315 313 313 313 315 315 313 310 310 310 311 312 311 311 310 309 309 308 310 311 315
307 308 310 311 311 311 312 313 313 310 308 306 306 305 309 309 308 307 308 308 308 308 310 309 309 313 312 313 309 310 312 312 313 313 313 312 313 313 310 310 312 311 311 310 309
307 307 308 309 309 309 307 307 307 306 305 306 306 306 309 307 308 308 308 308 308 307 307 307 308 309 311 309 309 311 312 315 313 314 313 314 317 311 310 312 313 312 313 311 310
305 307 307 308 308 307 307 307 306 305 307 307 306 306 308 308 310 309 308 309 309 310 308 307 310 311 309 313 314 311 315 314 313 313 313 315 316 312 310 312 312 313 313 313 310
306 307 306 307 308 308 308 309 309 309 308 307 307 308 309 310 310 310 309 308 309 310 312 312 313 314 313 316 318 316 314 312 314 314 313 314 315 314 313 311 312 313 313 312 310
305 306 306 307 307 307 309 310 309 311 310 311 311 311 311 310 310 311 310 309 310 312 313 310 325 322 314 312 310 311 312 313 312 312 312 313 313 313 312 312 314 314 312 311 310
306 307 308 308 308 307 309 310 308 308 310 307 309 311 310 309 312 312 310 310 312 314 310 316 318 313 311 311 312 312 312 312 312 311 311 312 312 312 311 313 313 314 313 313 312
306 306 306 307 307 308 308 308 307 306 310 306 308 311 311 311 312 312 311 310 311 312 312 319 314 311 310 311 313 313 312 313 314 312 308 311 314 313 313 312 312 312 313 313 313
305 306 307 307 306 306 307 307 307 305 318 308 310 311 311 310 312 309 309 310 311 312 313 314 311 311 312 312 310 312 312 312 312 314 316 311 314 312 313 314 313 313 314 313 312
306 306 307 307 308 307 307 308 306 307 328 308 310 309 310 311 309 311 307 311 313 311 310 313 313 313 314 312 310 313 312 312 313 315 313 312 317 315 310 314 314 313 312 312 311
305 306 307 307 307 307 307 307 306 324 318 310 309 311 311 310 310 308 310 309 309 312 313 313 310 312 312 311 311 310 309 310 313 315 325 313 316 320 315 315 314 313 312 311 310
305 306 307 307 308 307 307 307 324 320 304 310 312 310 310 310 311 309 309 311 311 320 324 311 312 312 311 314 311 310 315 332 332 328 325 312 316 319 312 312 312 312 312 311 308
306 306 306 306 307 308 304 309 320 306 308 308 310 309 311 309 310 310 309 310 308 309 313 318 320 312 311 312 314 311 311 323 319 316 313 306 316 322 310 309 310 310 312 310 307
305 306 307 304 307 308 309 319 311 308 308 311 308 309 310 309 310 311 310 310 308 308 313 310 312 311 311 311 310 311 314 306 311 307 310 313 311 308 308 309 312 311 311 310 307
308 305 307 306 304 304 313 310 310 307 309 309 310 309 309 310 310 310 310 309 309 307 306 307 313 309 311 310 309 310 307 312 312 312 310 311 309 321 315 310 313 312 312 310 307
306 312 307 305 304 310 315 310 310 307 307 309 309 309 308 309 307 307 308 309 308 307 304 304 306 308 310 312 312 310 311 308 308 308 309 307 315 311 312 311 312 313 312 310 307
310 319 308 303 312 308 310 308 307 307 306 308 307 307 308 306 307 307 309 309 307 307 307 305 304 308 307 306 306 308 309 308 310 307 307 306 311 305 306 307 308 312 312 310 307
312 311 308 304 313 310 307 307 307 307 307 307 307 306 305 306 306 306 308 307 307 307 307 305 305 307 304 306 306 310 309 307 305 307 308 307 308 303 306 309 309 311 312 310 306
311 319 313 307 303 307 307 306 307 305 306 305 305 304 305 305 304 306 307 307 307 308 305 304 303 304 308 304 308 308 309 308 308 312 308 307 307 307 307 308 308 308 308 308 306
308 309 306 314 312 306 306 306 306 306 305 304 304 304 304 304 304 304 304 306 306 308 306 306 306 303 303 302 303 304 305 309 309 309 309 312 309 310 310 309 308 307 306 306 305
312 311 306 309 306 309 307 306 307 306 305 306 304 305 305 304 303 303 303 304 305 307 307 305 306 305 309 308 307 307 308 306 307 308 309 309 310 309 307 307 307 307 305 304 304
303 303 309 307 309 311 310 308 306 306 306 305 306 306 306 306 304 303 302 302 303 307 307 307 307 311 317 310 311 316 313 312 309 307 308 311 310 306 307 305 305 305 304 304 303
Wind_Speed
9 6 6 4 6 8 9 12 11 11 10 9 20 23 18 14 13 9 10 3 3 3 5 5 6 9 7 3 1 2 3 6 7 9 7 7 5 2 1 2 2 1 1 4 11
10 8 7 4 1 5 8 11 12 6 10 10 15 23 18 16 12 10 6 2 3 4 5 10 11 12 5 4 1 4 3 4 2 2 6 8 3 5 3 3 5 4 3 3 11
14 11 11 9 3 6 9 10 10 11 15 16 13 12 17 18 9 6 8 4 5 3 7 5 11 6 5 4 2 2 1 5 3 3 3 6 5 1 2 5 3 1 2 5 11
19 18 15 12 4 6 8 10 13 14 11 10 7 11 15 8 6 5 4 5 7 7 4 6 8 7 6 9 2 4 4 0 4 1 3 5 2 3 4 1 2 3 2 5 9
18 17 17 17 14 12 12 12 12 10 11 12 8 14 7 5 2 2 2 4 8 8 5 7 11 6 8 7 4 4 6 4 4 5 4 2 1 2 4 1 4 5 4 5 7
14 15 17 14 11 10 12 12 12 14 18 19 16 11 7 5 1 3 4 8 7 7 5 8 6 3 9 4 1 4 8 7 4 4 3 1 2 3 4 1 2 2 5 5 7
12 13 14 18 15 14 12 9 13 11 11 10 12 9 2 4 2 3 7 8 7 4 3 3 6 1 7 7 4 8 6 5 6 4 2 2 5 7 4 3 2 4 5 6 9
10 10 11 9 6 6 8 5 3 4 4 5 8 1 4 1 1 6 7 8 5 4 3 6 8 9 3 10 4 2 3 5 3 5 1 3 2 3 6 3 7 9 5 7 5
6 6 7 5 3 3 3 1 1 3 2 4 2 2 5 1 1 8 7 7 5 4 3 4 3 4 3 7 4 2 4 4 4 4 3 2 3 2 5 6 12 10 7 5 6
3 4 5 3 3 3 2 4 5 4 3 3 1 3 2 2 1 7 8 7 5 2 3 1 3 4 3 4 7 5 4 2 2 3 2 5 11 8 8 9 12 7 5 4 8
3 4 5 4 4 5 1 1 3 2 9 3 2 4 2 1 4 9 7 3 2 2 3 2 4 6 6 3 4 6 4 2 2 2 5 4 9 13 10 7 6 3 1 5 7
4 1 3 3 5 3 2 3 2 2 8 4 2 4 1 3 6 8 5 2 1 2 2 2 6 4 5 4 6 4 3 1 1 0 4 6 17 9 5 2 1 1 3 6 8
4 2 2 0 2 4 8 6 4 1 2 4 3 4 3 4 5 6 4 2 5 3 3 4 6 2 2 4 5 4 1 1 2 6 1 10 7 4 3 3 3 2 3 6 8
8 3 5 2 2 3 4 3 2 2 3 10 6 5 4 2 6 3 4 3 4 6 6 8 2 3 5 5 3 3 2 2 2 4 3 5 6 4 5 5 5 6 7 8 8
8 5 3 2 7 2 2 2 1 2 4 10 5 5 3 5 2 8 6 4 4 4 2 2 2 3 4 3 3 4 2 3 2 1 3 1 3 2 3 8 10 9 8 7 6
9 7 1 2 4 4 2 3 2 2 3 3 3 5 3 7 4 4 3 6 2 5 14 5 2 4 3 4 5 9 3 2 2 1 3 2 2 3 3 2 9 10 9 8 7
7 12 7 4 2 1 2 1 3 4 1 3 3 4 5 6 4 5 4 4 1 4 3 2 3 2 1 3 3 1 1 1 2 1 3 2 2 8 1 1 1 11 11 8 7
2 5 8 7 2 2 2 1 6 1 1 1 1 3 4 4 3 3 3 3 5 2 3 4 2 2 3 2 1 2 1 2 4 3 2 2 6 1 2 0 1 3 8 8 8
2 1 5 10 1 2 2 5 2 1 1 2 2 2 2 1 1 2 3 1 2 4 1 3 3 1 3 0 2 4 3 1 3 1 3 2 5 5 2 3 3 7 10 11 11
1 2 4 7 3 3 3 5 2 1 2 1 0 2 3 2 2 2 2 1 1 1 3 3 4 1 2 1 5 2 5 2 1 3 4 4 5 3 2 5 6 9 12 11 11
2 1 8 5 3 5 5 5 3 2 2 2 1 2 2 2 2 2 2 1 1 1 2 1 2 3 2 6 4 4 3 1 2 3 3 4 2 3 4 2 7 9 11 12 12
2 2 12 5 4 3 3 2 2 4 4 2 2 3 2 1 2 2 2 2 2 1 1 2 1 3 2 2 3 3 2 4 3 4 1 3 6 2 4 5 5 8 10 11 13
2 2 9 4 4 3 2 3 2 2 3 3 3 4 2 2 1 2 2 3 2 1 1 3 1 2 3 2 1 4 4 3 2 2 6 4 2 1 3 3 3 8 10 10 10
2 3 4 5 3 3 3 2 2 2 2 1 2 2 2 2 3 3 2 1 2 1 4 1 2 3 2 2 3 4 7 10 8 4 6 12 18 10 5 8 11 9 7 9 9
4 2 0 3 5 6 3 3 2 2 2 2 2 1 1 2 1 3 2 3 1 3 2 1 3 1 6 7 6 8 9 13 14 17 10 17 10 16 14 16 12 11 11 11 11
2 1 1 2 1 3 3 3 4 3 4 3 2 2 1 0 1 2 4 3 2 3 4 1 2 2 4 2 7 9 15 16 19 20 19 21 24 11 5 9 10 9 10 10 9
4 3 3 1 1 1 1 3 4 4 2 2 1 0 1 2 3 5 5 2 1 4 7 4 4 3 3 1 6 11 13 14 8 8 12 14 7 9 13 11 10 12 11 12 9
Wind_Direction
21 17 26 320 253 237 216 177 180 199 206 218 197 185 183 185 171 174 210 178 190 221 288 240 198 159 144 124 168 207 196 194 170 177 138 151 164 113 343 223 191 179 357 71 147
38 41 26 4 44 141 172 171 182 196 213 197 187 181 183 170 167 195 193 176 206 257 234 209 172 164 138 129 169 222 212 162 77 86 148 143 170 148 214 205 214 195 129 127 165
50 38 10 9 235 172 166 170 175 170 153 137 131 145 173 157 168 176 182 235 211 199 229 241 176 185 135 153 157 118 179 136 131 101 138 136 142 144 207 231 269 241 187 166 183
39 32 16 16 97 149 162 142 160 159 146 131 121 159 175 175 175 151 199 248 198 183 218 207 180 170 142 159 138 139 87 84 132 63 126 143 126 194 234 16 58 20 302 203 197
36 38 44 45 67 112 119 126 153 145 127 109 111 178 194 195 99 224 263 194 173 171 212 206 176 164 144 132 142 114 131 95 83 78 69 117 186 308 246 304 297 281 239 224 212
40 46 50 63 65 131 112 118 126 122 139 136 146 204 242 172 180 333 148 150 142 163 214 222 192 144 102 95 12 110 122 113 74 53 60 248 199 285 164 329 80 64 227 231 226
41 53 56 58 64 81 95 117 130 138 153 173 188 197 119 73 29 81 142 131 142 156 227 234 149 160 132 114 118 133 119 129 53 14 72 336 221 228 139 148 274 321 267 254 245
40 56 48 47 84 84 101 107 116 153 154 158 166 206 73 66 79 81 110 91 103 167 211 147 117 93 40 118 99 158 181 175 66 5 106 291 243 169 162 244 283 316 283 247 232
47 55 69 57 48 19 23 352 169 154 153 148 145 261 106 96 99 61 79 89 87 102 105 124 64 84 137 143 137 195 185 202 152 50 311 264 273 145 184 272 295 303 297 260 198
46 30 10 30 30 5 14 69 100 77 86 104 63 181 78 95 32 75 71 78 69 123 174 79 83 114 104 194 189 178 174 164 207 34 305 245 262 257 261 283 288 290 294 228 184
315 301 328 327 312 337 3 125 195 88 34 34 343 65 67 21 71 52 40 73 64 80 164 28 100 122 106 58 79 102 110 143 111 37 307 270 277 276 287 265 256 276 284 158 154
37 48 352 344 334 263 129 82 47 107 88 40 50 66 16 303 91 39 29 67 58 117 308 110 94 98 97 95 98 92 131 133 193 307 303 309 290 286 238 215 256 168 130 144 139
14 314 315 310 54 113 102 99 106 89 80 34 22 24 336 0 64 21 25 72 68 69 357 92 104 132 134 108 121 63 50 100 321 315 232 308 257 192 170 170 146 147 120 135 145
10 333 0 184 131 137 81 107 107 136 85 3 350 35 340 5 68 10 44 60 64 118 77 73 61 128 111 86 325 158 88 95 350 315 290 352 293 217 192 197 198 171 167 154 148
8 2 7 157 138 65 142 107 90 155 72 335 353 327 357 59 148 36 36 42 82 76 241 69 100 99 86 45 337 94 111 70 22 339 315 138 251 228 170 219 206 188 175 168 154
19 25 85 71 71 106 130 130 105 37 69 6 328 354 61 24 44 343 62 57 110 72 60 86 61 34 68 64 64 133 121 86 96 333 243 54 283 264 199 242 191 185 179 167 152
32 47 62 70 95 65 134 187 55 67 165 348 14 25 70 29 56 30 32 44 46 108 44 80 37 57 46 115 114 202 63 302 284 222 280 152 258 266 267 224 253 188 180 168 156
55 48 42 46 42 128 145 152 73 74 19 166 67 68 71 0 56 46 110 107 62 33 123 156 180 16 9 19 28 98 276 257 268 265 340 150 241 243 37 305 320 211 171 160 165
196 164 41 354 29 153 212 60 86 115 45 151 120 108 104 133 140 116 53 79 16 358 87 144 116 95 48 39 303 143 202 46 109 97 266 249 262 214 314 192 193 176 175 180 179
208 158 30 9 88 135 78 98 80 286 339 314 46 335 144 127 173 167 162 101 143 8 312 162 118 196 125 193 62 296 129 155 182 258 257 229 271 248 357 213 194 188 195 190 187
63 287 5 358 66 59 68 60 65 20 328 346 92 101 69 94 51 72 77 99 353 67 31 153 266 134 206 204 183 153 193 158 320 259 266 295 239 189 228 275 227 212 205 199 199
72 48 351 34 48 54 71 58 347 13 18 25 55 44 51 80 94 108 113 41 2 336 54 41 38 150 80 56 358 328 287 227 248 193 255 323 282 158 270 284 268 235 218 213 212
62 337 354 23 71 68 103 106 110 96 60 54 62 29 39 84 96 46 72 15 360 1 143 169 176 169 165 152 128 241 198 213 107 8 218 257 255 230 285 281 236 247 236 226 224
96 34 14 47 34 65 114 69 78 5 60 44 122 161 138 101 32 142 142 105 357 90 80 182 149 250 282 85 114 202 198 208 207 204 232 230 267 248 252 298 308 294 272 268 240
17 86 315 24 36 51 8 18 43 37 52 8 110 81 133 136 139 157 171 178 134 138 107 214 255 211 281 253 235 255 240 208 209 228 235 274 259 288 316 316 321 307 301 288 251
59 156 166 112 199 125 28 55 32 6 346 12 9 15 350 290 301 199 179 228 210 161 193 206 219 155 273 240 226 254 247 242 237 248 251 268 277 314 345 334 338 340 339 319 288
40 41 300 44 114 180 133 174 161 166 153 148 138 262 309 334 316 318 266 314 242 192 188 184 184 188 250 259 289 266 243 213 219 226 235 252 285 340 332 338 346 345 347 338 320